Temperature
9 9 9 8 8 8 8 9 9 9 9 9 9 9 10 10 10 10 10 10 10 11 11 11 11 11 11 11 11 11 11 11 11 10 9 9 9 8 8 8 8 8 8
8 8 8 8 8 8 8 8 8 8 8 9 9 9 9 9 9 9 9 10 10 10 10 10 11 11 11 11 11 10 10 10 10 10 8 8 8 8 8 8 7 7 7
8 8 8 8 8 7 7 8 8 8 8 8 8 8 8 8 9 9 9 9 9 9 9 10 10 10 10 10 10 10 10 10 10 9 8 8 7 7 7 7 7 7 7
8 7 7 7 7 7 7 7 7 7 7 7 8 8 8 8 8 8 8 8 9 9 9 9 9 9 9 10 10 10 9 9 9 8 8 7 7 7 7 7 7 7 7
7 7 7 7 7 7 7 7 7 7 7 7 7 7 7 7 7 8 8 8 8 8 9 9 9 9 9 9 9 9 9 9 8 8 7 7 7 7 7 7 7 7 7
7 7 7 7 7 7 7 6 7 7 7 7 7 7 7 7 7 7 8 8 8 8 8 8 8 8 9 9 9 9 9 9 8 8 8 7 7 7 7 7 7 7 7
7 7 7 7 6 6 6 6 6 6 6 6 7 7 7 7 7 7 7 7 8 8 8 8 8 8 8 8 8 8 8 8 8 8 8 8 7 7 7 7 7 7 7
7 7 6 6 6 6 6 6 6 6 6 6 6 6 6 7 7 7 7 7 7 7 7 7 8 8 8 8 8 8 8 8 8 8 8 8 8 7 7 7 7 7 7
6 6 6 6 6 6 6 6 6 6 6 6 6 6 6 6 6 6 7 7 7 7 7 7 7 7 7 8 8 7 7 7 7 7 7 7 7 7 7 7 7 7 7
6 6 6 6 6 6 6 6 6 6 6 6 6 6 6 6 6 6 7 7 7 7 7 7 7 7 7 7 7 7 7 7 7 7 7 7 7 7 7 7 7 7 7
6 6 6 6 6 6 6 6 6 6 6 6 6 6 6 6 6 6 6 7 7 7 7 7 7 7 7 7 7 7 7 7 7 7 7 7 7 7 7 7 7 7 7
6 6 6 6 6 6 6 6 6 6 6 6 6 6 6 6 6 6 6 6 6 7 7 6 6 7 7 7 7 7 7 7 7 7 7 7 7 7 7 7 7 7 7
6 6 6 6 6 6 6 6 6 6 6 6 6 6 6 6 6 6 6 6 6 6 6 6 7 7 7 7 7 7 7 7 7 7 7 7 7 7 7 7 7 7 7
6 6 6 6 6 6 6 6 6 6 6 6 6 6 6 6 6 6 6 6 6 7 7 7 7 7 7 7 7 7 7 7 7 7 7 7 7 7 7 7 7 8 8
6 6 6 6 6 6 6 6 6 6 6 6 6 6 6 6 6 6 6 6 7 7 7 7 7 7 7 7 7 7 7 7 7 7 7 7 7 7 7 7 7 8 8
6 6 6 6 6 6 6 6 6 6 6 6 6 6 6 6 6 6 6 6 6 7 7 7 7 7 7 7 7 7 7 7 7 7 7 7 7 7 7 7 7 8 8
6 6 6 6 6 6 6 6 6 6 6 6 6 6 6 6 6 6 6 7 7 7 7 7 7 7 7 7 7 7 7 7 7 7 7 7 7 7 7 7 7 7 7
6 6 6 6 6 6 6 6 6 6 6 6 6 6 6 6 6 6 7 7 7 7 7 7 7 7 7 7 7 7 7 7 7 7 7 7 7 7 7 7 7 7 7
6 6 6 6 6 6 6 6 6 6 6 6 6 6 6 6 6 7 7 7 7 7 7 7 7 7 7 7 7 7 7 7 7 7 7 7 7 7 7 7 7 7 7
6 6 6 6 6 6 6 6 6 6 6 6 6 6 6 6 7 7 7 7 7 7 7 7 7 7 7 7 7 7 7 7 7 7 7 7 7 7 7 7 7 7 7
6 6 6 7 7 7 7 7 7 7 7 7 7 7 7 7 7 7 7 7 7 7 7 7 7 7 7 7 7 7 7 7 7 7 7 7 7 7 7 7 7 7 7
6 7 7 7 7 7 7 7 7 7 7 7 7 7 7 7 7 7 7 7 7 7 7 7 7 7 7 7 7 7 7 7 7 7 7 7 7 7 7 7 7 7 7
7 7 7 7 7 7 7 7 7 7 7 8 8 8 8 8 8 8 8 8 8 7 7 7 7 7 7 7 7 7 7 7 7 7 7 7 7 7 7 7 7 7 7
7 7 7 7 8 8 8 8 8 8 8 8 8 8 8 8 8 8 8 8 8 8 8 8 8 7 7 7 7 7 7 7 7 7 7 7 7 8 7 8 8 8 7
7 7 7 8 8 8 8 8 8 8 8 8 8 8 8 8 8 8 8 8 8 8 8 8 8 8 8 8 8 8 8 8 8 8 8 8 8 8 8 8 8 8 8
7 8 8 8 8 8 8 8 9 9 9 9 9 9 9 9 9 9 9 9 9 9 9 8 8 8 8 8 8 8 8 8 8 8 8 8 8 8 8 8 8 8 8
Wind_Speed
5 5 6 6 6 6 6 6 6 6 6 7 6 6 6 7 6 6 5 5 5 4 3 2 1 1 1 1 2 2 3 4 5 4 4 6 6 7 10 11 11 11 11
4 5 5 5 6 6 6 6 6 6 6 6 6 7 7 7 7 6 7 7 6 6 5 4 3 2 1 1 2 3 4 4 7 9 6 5 6 7 8 9 9 9 9
4 5 5 6 6 6 6 6 6 6 6 7 7 7 7 7 7 6 6 7 7 6 6 5 4 3 3 2 3 4 5 7 8 10 8 5 5 6 7 7 7 6 6
4 5 5 5 5 5 5 6 6 6 6 7 6 6 6 7 7 7 7 7 7 7 6 5 4 4 3 3 4 5 7 9 10 10 10 7 6 5 6 6 5 3 3
4 4 4 4 4 5 5 6 6 7 7 6 6 7 7 6 7 7 6 7 7 7 8 7 6 6 6 4 5 6 9 9 9 9 9 8 6 6 5 4 5 4 2
4 4 4 4 5 5 5 6 7 7 7 7 7 7 8 7 9 10 8 7 7 8 8 7 7 8 9 10 10 8 9 10 10 8 8 9 7 6 5 6 5 4 2
4 3 4 4 5 5 5 6 7 6 7 7 7 7 7 8 11 11 11 8 8 8 8 7 7 7 8 8 11 12 11 9 8 9 10 8 8 7 7 6 4 3 2
3 3 3 4 4 5 6 6 6 5 6 5 7 7 7 9 11 11 11 9 9 9 8 8 7 8 7 8 10 11 10 9 8 7 7 7 6 7 6 6 6 5 3
3 3 3 3 4 4 5 5 5 5 6 5 5 7 7 8 11 10 9 7 8 9 9 9 8 8 9 10 11 12 11 9 12 14 12 10 10 9 9 7 6 5 3
2 2 3 3 4 4 4 4 3 4 5 5 7 7 7 7 10 11 8 6 7 7 8 9 12 10 10 11 10 10 11 8 8 9 10 10 9 8 7 5 5 4 3
3 4 4 4 3 3 3 3 4 4 5 6 7 7 7 8 9 12 10 6 5 6 6 6 7 11 13 13 10 9 9 8 8 8 7 6 6 5 4 3 3 3 3
4 5 4 4 4 4 4 4 4 4 6 6 6 6 6 7 9 9 11 9 6 6 5 4 5 10 12 12 10 10 11 9 6 6 6 5 4 3 2 2 1 2 2
5 5 4 5 5 4 4 3 3 4 4 4 4 4 5 5 6 10 10 10 9 5 4 7 8 10 11 10 11 11 8 6 6 5 5 3 2 1 2 2 3 2 1
6 4 4 4 4 4 4 3 3 2 3 3 3 3 3 4 5 5 5 5 7 6 5 7 10 12 9 8 8 7 6 5 4 4 3 2 2 2 2 2 2 2 2
5 4 4 4 3 4 4 3 2 1 0 1 1 1 2 3 4 4 3 3 3 3 4 4 5 5 6 5 5 5 4 4 4 3 3 3 3 3 2 2 2 2 2
5 3 3 3 2 3 3 4 7 5 5 3 2 1 1 1 3 5 6 6 5 6 5 4 4 4 4 4 4 4 4 3 3 3 3 3 2 2 2 2 2 2 1
4 3 2 2 2 2 2 2 2 4 6 6 5 3 2 3 4 5 6 6 6 6 4 3 2 2 2 2 2 2 2 2 2 2 2 2 2 2 2 2 2 1 2
4 3 3 2 1 1 1 1 1 1 1 3 4 4 4 4 4 4 4 4 4 4 2 2 1 1 1 1 1 1 1 1 1 1 1 1 1 1 1 1 1 1 2
4 2 2 2 1 1 1 1 1 0 0 1 2 3 4 3 4 5 4 2 1 1 1 1 0 0 0 0 0 1 1 1 1 1 1 0 0 0 0 1 1 2 2
3 4 3 2 1 1 1 1 1 1 1 1 1 2 2 2 1 2 1 0 0 1 1 1 1 1 1 1 1 1 1 0 0 0 0 1 1 1 1 2 2 2 2
3 2 3 2 1 2 2 2 2 2 2 2 2 3 3 1 2 2 2 2 2 2 2 2 2 1 1 1 2 2 2 1 1 1 2 2 2 2 2 2 2 3 3
3 2 2 2 2 2 2 2 2 3 3 3 3 3 3 2 3 3 3 3 3 4 4 3 3 3 3 3 3 3 3 3 3 3 3 2 2 2 2 3 3 3 4
3 3 2 2 2 2 2 2 2 3 3 3 3 3 3 3 4 4 4 4 4 4 5 5 5 5 5 6 6 6 5 5 5 4 4 3 3 3 3 4 5 5 6
4 4 3 3 2 2 2 3 3 3 4 4 4 4 4 4 5 5 5 5 5 6 6 6 7 8 9 8 8 8 9 9 8 7 7 5 5 4 4 5 6 7 7
4 4 4 3 3 3 3 3 4 4 4 4 4 5 5 5 5 5 5 6 6 6 8 8 8 9 10 11 10 10 11 12 11 9 7 6 6 6 6 7 7 8 8
5 5 4 4 3 4 4 4 4 4 4 5 5 5 5 5 6 6 6 6 6 7 8 9 10 12 12 12 13 14 14 14 13 12 9 7 7 7 7 7 9 9 10
Wind_Direction
42 41 39 31 27 30 28 16 9 9 11 12 10 14 16 16 15 17 16 13 10 3 356 353 338 308 218 176 156 149 143 141 142 121 107 112 107 108 107 106 106 108 113
45 45 41 35 32 31 23 13 10 12 12 13 14 21 21 20 19 23 23 21 21 13 6 17 20 43 63 105 130 134 137 135 138 132 121 113 107 113 111 107 105 107 111
49 49 42 36 34 28 19 13 13 14 15 19 24 24 23 23 24 25 27 27 28 23 18 23 26 49 65 92 113 123 125 123 123 128 127 118 109 114 111 106 102 100 111
57 54 44 34 32 27 21 19 16 17 22 23 26 25 25 28 28 29 32 32 33 31 27 29 36 55 75 97 112 121 122 121 124 126 127 123 117 115 118 119 111 98 106
69 59 44 35 37 36 32 25 23 25 26 25 31 31 28 31 29 30 36 39 38 39 36 37 49 67 74 85 113 124 127 127 127 129 129 128 129 134 132 131 126 114 96
77 64 53 48 45 41 34 30 30 28 26 32 33 34 34 33 34 37 43 44 42 43 40 40 50 59 71 78 90 106 128 136 137 136 136 138 141 140 135 136 132 130 126
83 72 60 59 53 41 39 37 31 27 32 34 30 34 36 28 36 42 46 52 48 41 38 40 53 56 67 85 83 83 87 102 125 137 139 143 147 153 144 137 138 132 126
86 77 68 66 59 47 43 36 27 27 34 32 29 30 37 29 35 46 51 54 51 43 39 41 54 55 68 88 91 85 79 78 93 111 127 136 143 148 144 137 131 115 95
85 77 74 78 72 58 46 33 25 34 39 36 31 32 38 27 33 45 54 58 53 42 37 39 51 62 67 87 95 93 86 77 79 93 101 109 121 133 135 124 124 121 112
97 86 78 79 79 68 54 41 32 45 47 47 43 34 35 30 30 41 49 63 57 46 39 38 45 59 68 80 93 99 96 91 96 92 88 88 97 111 127 139 143 135 131
102 92 79 73 72 73 59 47 52 56 54 50 48 38 35 30 32 41 47 60 64 57 47 38 38 57 69 74 82 90 101 104 96 94 91 85 83 84 88 114 147 148 146
94 87 76 67 66 74 70 57 52 57 60 48 45 38 30 26 32 40 49 56 62 67 53 37 43 63 69 71 78 90 95 94 92 88 84 77 74 68 57 59 118 181 221
95 86 75 65 59 63 73 70 57 53 61 53 50 44 23 18 21 33 45 50 55 62 57 64 68 72 70 68 72 80 81 85 89 88 83 69 48 36 38 49 59 63 55
103 92 82 74 62 55 56 59 69 65 67 64 58 45 29 22 18 15 21 32 43 54 56 60 64 64 64 62 60 61 65 75 88 89 84 65 54 65 61 53 55 42 42
108 100 87 77 76 68 58 44 50 36 40 109 85 67 56 34 350 2 36 30 27 41 60 57 52 52 55 53 54 55 59 67 73 74 80 76 64 60 48 39 46 46 41
118 111 102 96 84 84 82 58 46 49 53 75 92 90 21 354 2 38 41 40 48 69 72 61 54 53 54 56 59 55 51 55 62 74 75 71 63 53 44 36 41 39 20
136 135 124 117 108 93 86 82 53 27 43 48 44 40 24 18 32 37 39 45 49 73 75 69 61 51 45 49 58 59 49 44 61 78 81 75 66 53 47 33 26 15 348
138 142 140 136 124 114 114 107 99 69 17 353 1 3 2 8 13 17 32 52 44 47 67 75 62 38 32 50 78 84 69 55 64 67 63 57 59 60 40 9 352 330 322
143 149 145 137 139 139 126 123 117 86 328 319 334 342 349 353 11 19 35 62 53 26 21 15 333 275 268 247 179 146 128 81 54 57 46 34 27 107 322 315 312 303 297
157 168 159 152 153 152 147 160 198 237 271 282 290 301 337 10 1 357 10 347 275 277 284 285 280 254 248 236 202 181 167 181 240 251 266 270 262 238 261 287 295 298 294
159 164 163 163 191 206 213 225 232 241 253 263 265 260 231 232 267 283 287 273 256 250 249 254 255 250 241 224 210 205 214 234 239 240 249 254 253 255 263 267 276 283 288
160 167 183 205 221 221 226 227 224 233 245 254 266 267 236 230 254 265 271 266 257 248 242 238 244 246 239 231 221 217 225 236 240 238 242 247 247 254 263 269 275 283 289
173 184 202 222 225 233 238 244 237 235 244 251 258 263 259 252 255 256 260 265 262 253 245 234 239 249 247 240 233 226 232 241 243 237 238 247 251 256 260 268 277 284 288
191 199 210 223 227 236 248 258 256 253 255 256 255 256 256 256 258 258 258 259 259 258 253 241 240 245 247 247 246 243 244 249 251 246 240 244 252 260 262 266 271 277 281
198 205 215 223 226 234 246 256 260 258 258 257 255 255 258 256 256 258 256 254 255 256 256 249 247 249 251 250 251 252 255 256 256 252 243 241 250 257 263 268 272 278 279
206 211 218 223 229 234 241 251 260 261 259 259 257 255 256 257 258 259 257 253 253 255 258 256 251 250 252 254 256 257 259 259 260 257 243 242 249 258 263 267 275 276 281
Height
1542 1541 1541 1540 1539 1538 1537 1536 1535 1534 1532 1531 1529 1527 1526 1525 1523 1522 1521 1519 1518 1516 1515 1515 1515 1515 1516 1517 1519 1521 1523 1525 1527 1531 1535 1538 1541 1543 1545 1548 1550 1553 1555
1543 1542 1542 1541 1540 1539 1538 1537 1536 1534 1533 1531 1529 1528 1526 1525 1524 1522 1521 1519 1517 1516 1514 1513 1513 1514 1514 1515 1516 1517 1520 1522 1525 1528 1533 1537 1540 1543 1546 1548 1551 1553 1556
1544 1543 1542 1542 1541 1540 1539 1538 1537 1535 1534 1532 1530 1529 1527 1526 1525 1523 1521 1520 1518 1516 1514 1513 1513 1513 1512 1513 1514 1516 1518 1521 1524 1527 1532 1536 1540 1544 1547 1549 1552 1554 1557
1544 1544 1543 1542 1542 1541 1540 1539 1538 1537 1535 1534 1532 1531 1529 1528 1526 1524 1523 1521 1519 1518 1516 1515 1513 1513 1513 1513 1514 1516 1518 1521 1524 1528 1532 1536 1540 1545 1548 1550 1553 1556 1559
1545 1545 1544 1543 1543 1542 1542 1541 1540 1539 1537 1536 1534 1533 1532 1530 1529 1527 1525 1524 1522 1520 1518 1517 1515 1515 1515 1515 1516 1517 1519 1522 1525 1529 1533 1537 1542 1545 1549 1552 1554 1557 1560
1546 1546 1545 1544 1544 1544 1543 1542 1541 1540 1539 1538 1537 1536 1534 1533 1532 1530 1529 1527 1525 1523 1521 1520 1519 1518 1517 1517 1518 1520 1522 1524 1527 1531 1534 1538 1543 1546 1550 1553 1556 1558 1561
1547 1547 1546 1546 1546 1545 1545 1544 1544 1543 1542 1540 1539 1538 1537 1536 1535 1534 1532 1530 1528 1527 1525 1524 1522 1522 1521 1521 1522 1523 1526 1529 1532 1534 1537 1541 1544 1547 1550 1554 1557 1560 1562
1548 1548 1548 1548 1547 1547 1547 1546 1546 1545 1544 1543 1542 1541 1540 1539 1538 1537 1535 1534 1532 1530 1529 1528 1527 1526 1526 1526 1527 1528 1530 1532 1535 1538 1541 1544 1547 1550 1553 1556 1558 1561 1564
1549 1549 1549 1549 1549 1549 1549 1548 1548 1547 1547 1546 1545 1544 1543 1542 1542 1541 1539 1538 1536 1535 1534 1533 1532 1531 1531 1531 1531 1532 1534 1536 1539 1542 1545 1547 1550 1552 1555 1557 1560 1562 1564
1550 1551 1551 1551 1551 1551 1551 1551 1550 1550 1549 1548 1548 1547 1547 1546 1545 1544 1543 1542 1540 1539 1538 1538 1537 1536 1536 1536 1537 1537 1538 1541 1543 1546 1548 1551 1553 1555 1558 1560 1562 1564 1565
1552 1552 1552 1553 1553 1553 1553 1553 1553 1552 1552 1551 1551 1550 1550 1549 1549 1548 1547 1546 1545 1544 1543 1543 1542 1542 1542 1542 1542 1543 1544 1546 1548 1550 1552 1554 1556 1559 1561 1563 1564 1565 1567
1553 1554 1554 1555 1555 1555 1555 1555 1555 1555 1555 1554 1554 1554 1553 1552 1552 1551 1551 1550 1550 1549 1548 1548 1548 1548 1548 1548 1548 1549 1550 1551 1553 1554 1556 1558 1560 1561 1563 1565 1566 1567 1568
1554 1555 1556 1556 1557 1557 1557 1557 1557 1557 1557 1557 1557 1556 1556 1555 1555 1555 1555 1554 1554 1553 1553 1553 1553 1553 1553 1553 1554 1555 1555 1556 1557 1558 1560 1562 1563 1565 1566 1567 1567 1568 1569
1556 1557 1557 1558 1559 1559 1559 1559 1559 1559 1559 1559 1559 1559 1559 1558 1558 1558 1558 1558 1558 1557 1557 1557 1558 1558 1558 1558 1559 1559 1560 1561 1562 1562 1563 1565 1566 1567 1568 1568 1568 1569 1569
1557 1558 1559 1560 1561 1561 1561 1562 1562 1562 1562 1562 1562 1562 1561 1561 1561 1561 1561 1561 1561 1561 1561 1561 1562 1562 1562 1562 1563 1563 1564 1564 1565 1566 1566 1567 1568 1568 1569 1569 1569 1569 1569
1558 1560 1560 1561 1563 1563 1564 1564 1564 1564 1564 1564 1564 1564 1564 1564 1564 1564 1564 1564 1564 1565 1565 1565 1565 1565 1565 1566 1566 1566 1567 1567 1567 1568 1568 1569 1569 1569 1570 1570 1570 1569 1569
1560 1561 1562 1563 1564 1565 1565 1566 1566 1566 1566 1566 1566 1566 1566 1566 1566 1567 1567 1567 1567 1567 1567 1568 1568 1568 1568 1568 1568 1569 1569 1569 1569 1569 1570 1570 1570 1570 1570 1570 1569 1569 1568
1562 1563 1564 1565 1566 1567 1567 1567 1567 1567 1567 1568 1568 1568 1568 1568 1568 1568 1568 1569 1569 1569 1569 1569 1570 1570 1570 1570 1570 1570 1570 1570 1570 1571 1571 1571 1571 1570 1570 1569 1569 1568 1567
1563 1564 1566 1567 1567 1568 1568 1568 1568 1569 1569 1569 1569 1569 1569 1569 1569 1569 1570 1570 1570 1570 1570 1571 1571 1571 1571 1571 1571 1571 1571 1571 1571 1571 1571 1571 1570 1570 1569 1569 1568 1567 1566
1564 1566 1567 1568 1569 1569 1569 1570 1570 1570 1570 1570 1570 1570 1570 1570 1571 1571 1571 1571 1571 1571 1571 1571 1571 1571 1572 1571 1571 1571 1571 1571 1571 1571 1570 1570 1570 1569 1568 1567 1566 1565 1564
1565 1566 1568 1569 1569 1570 1570 1570 1571 1570 1570 1570 1571 1571 1571 1571 1571 1571 1571 1571 1571 1571 1571 1571 1571 1571 1571 1571 1571 1571 1571 1570 1570 1570 1569 1569 1568 1567 1567 1566 1564 1563 1561
1566 1567 1568 1569 1570 1570 1571 1571 1571 1571 1571 1571 1571 1571 1571 1571 1571 1571 1571 1571 1571 1571 1571 1571 1570 1570 1570 1570 1570 1570 1569 1569 1569 1568 1567 1567 1566 1565 1564 1563 1562 1560 1558
1566 1567 1568 1569 1570 1570 1571 1571 1571 1571 1570 1570 1570 1570 1571 1571 1571 1570 1570 1570 1570 1570 1570 1569 1569 1569 1568 1568 1568 1568 1567 1567 1567 1566 1565 1564 1563 1562 1561 1560 1558 1557 1555
1566 1566 1567 1568 1569 1570 1570 1570 1570 1570 1570 1570 1570 1570 1570 1570 1570 1570 1569 1569 1569 1569 1568 1568 1567 1567 1566 1566 1566 1565 1565 1564 1564 1563 1562 1561 1560 1559 1558 1556 1555 1553 1551
1564 1565 1566 1567 1568 1568 1569 1569 1569 1569 1569 1569 1569 1569 1569 1569 1569 1568 1568 1568 1567 1567 1567 1566 1566 1565 1565 1564 1564 1563 1562 1562 1561 1560 1559 1558 1557 1556 1555 1553 1551 1549 1547
1562 1563 1564 1565 1566 1567 1567 1567 1567 1567 1567 1567 1567 1567 1567 1567 1567 1567 1566 1566 1565 1565 1565 1564 1564 1563 1562 1562 1561 1561 1560 1559 1558 1557 1556 1555 1554 1552 1551 1549 1547 1545 1542